OEDVK LOWG-LOWW

Flight info

Callsign OEDVK
Flight time 1h 24m
Altitude 6000
Route VFR
Aircraft C172/L-VGDW/C

Departure

Time 2026-05-08 11:35
Airport Graz Airport (LOWG)

Arrival

Time 2026-05-08 12:59
Airport Vienna International Airport (LOWW)
Time Latitude Longitude Altitude Speed Heading
2026-05-08 11:09 46.99236 15.44438 1119 ft 0 kts 350°
2026-05-08 11:26 46.99236 15.44437 1119 ft 0 kts 350°
2026-05-08 11:27 46.99237 15.44437 1119 ft 0 kts 350°
2026-05-08 11:29 46.99238 15.44437 1119 ft 0 kts 350°
2026-05-08 11:30 46.99239 15.44437 1119 ft 2 kts 350°
2026-05-08 11:30 46.99252 15.44427 1119 ft 0 kts 304°
2026-05-08 11:30 46.99242 15.44377 1119 ft 11 kts 256°
2026-05-08 11:30 46.99248 15.44320 1119 ft 3 kts 348°
2026-05-08 11:31 46.99277 15.44316 1119 ft 6 kts
2026-05-08 11:31 46.99321 15.44307 1119 ft 7 kts 346°
2026-05-08 11:31 46.99374 15.44289 1119 ft 10 kts 346°
2026-05-08 11:31 46.99431 15.44264 1119 ft 6 kts 310°
2026-05-08 11:32 46.99422 15.44223 1119 ft 3 kts 231°
2026-05-08 11:32 46.99386 15.44168 1119 ft 11 kts 224°
2026-05-08 11:32 46.99326 15.44075 1119 ft 14 kts 229°
2026-05-08 11:32 46.99255 15.43962 1119 ft 16 kts 220°
2026-05-08 11:33 46.99205 15.43935 1119 ft 0 kts 171°
2026-05-08 11:33 46.99128 15.43956 1119 ft 33 kts 169°
2026-05-08 11:34 46.98769 15.44054 1119 ft 69 kts 169°
2026-05-08 11:34 46.98280 15.44183 1259 ft 75 kts 169°
2026-05-08 11:34 46.97737 15.44337 1358 ft 83 kts 169°
2026-05-08 11:34 46.97236 15.44728 1491 ft 85 kts 124°
2026-05-08 11:35 46.97177 15.45711 1434 ft 112 kts 72°
2026-05-08 11:35 46.97692 15.46518 1651 ft 109 kts 22°
2026-05-08 11:35 46.98397 15.46387 1902 ft 104 kts 336°
2026-05-08 11:35 46.98998 15.46011 2178 ft 95 kts 338°
2026-05-08 11:36 46.99607 15.45628 2388 ft 92 kts 336°
2026-05-08 11:36 47.00236 15.45208 2441 ft 108 kts 340°
2026-05-08 11:36 47.01017 15.45164 2444 ft 119 kts 20°
2026-05-08 11:36 47.01650 15.45877 2546 ft 115 kts 58°
2026-05-08 11:37 47.01905 15.46936 2699 ft 111 kts 78°
2026-05-08 11:37 47.02042 15.48109 2704 ft 118 kts 83°
2026-05-08 11:37 47.02138 15.49246 2926 ft 107 kts 81°
2026-05-08 11:37 47.02409 15.50255 3027 ft 110 kts 63°
2026-05-08 11:38 47.02762 15.51203 3258 ft 99 kts 63°
2026-05-08 11:38 47.03052 15.52070 3463 ft 94 kts 66°
2026-05-08 11:38 47.03331 15.52950 3587 ft 97 kts 66°
2026-05-08 11:38 47.03625 15.53842 3757 ft 95 kts 65°
2026-05-08 11:39 47.03853 15.54655 4057 ft 78 kts 73°
2026-05-08 11:39 47.03989 15.55424 4220 ft 79 kts 78°
2026-05-08 11:39 47.04096 15.56192 4421 ft 73 kts 79°
2026-05-08 11:39 47.04217 15.56959 4548 ft 78 kts 70°
2026-05-08 11:40 47.04417 15.57610 4756 ft 72 kts 65°
2026-05-08 11:40 47.04679 15.58299 4835 ft 82 kts 59°
2026-05-08 11:40 47.04987 15.59081 4848 ft 98 kts 63°
2026-05-08 11:40 47.05301 15.59941 5033 ft 91 kts 62°
2026-05-08 11:41 47.05632 15.60667 5246 ft 85 kts 56°
2026-05-08 11:41 47.05990 15.61420 5311 ft 94 kts 57°
2026-05-08 11:41 47.06366 15.62206 5462 ft 92 kts 57°
2026-05-08 11:41 47.06737 15.62962 5616 ft 91 kts 56°
2026-05-08 11:42 47.07106 15.63738 5723 ft 94 kts 60°
2026-05-08 11:42 47.07425 15.64584 5844 ft 95 kts 65°
2026-05-08 11:42 47.07720 15.65476 5937 ft 99 kts 65°
2026-05-08 11:42 47.08033 15.66362 6054 ft 99 kts 64°
2026-05-08 11:43 47.08372 15.67296 6118 ft 103 kts 65°
2026-05-08 11:43 47.08693 15.68264 6161 ft 109 kts 67°
2026-05-08 11:43 47.09031 15.69305 6177 ft 115 kts 66°
2026-05-08 11:43 47.09375 15.70361 6243 ft 115 kts 66°
2026-05-08 11:44 47.09763 15.71435 6187 ft 124 kts 59°
2026-05-08 11:44 47.10343 15.72410 6160 ft 128 kts 43°
2026-05-08 11:44 47.11018 15.73213 6262 ft 121 kts 41°
2026-05-08 11:44 47.11657 15.73969 6328 ft 120 kts 41°
2026-05-08 11:45 47.12327 15.74734 6315 ft 124 kts 40°
2026-05-08 11:45 47.12988 15.75564 6328 ft 125 kts 40°
2026-05-08 11:45 47.13744 15.76364 6107 ft 139 kts 41°
2026-05-08 11:45 47.14458 15.77327 6016 ft 136 kts 50°
2026-05-08 11:46 47.14865 15.78588 5819 ft 139 kts 81°
2026-05-08 11:46 47.14773 15.79938 5844 ft 129 kts 107°
2026-05-08 11:46 47.14464 15.81174 5762 ft 130 kts 112°
2026-05-08 11:46 47.14107 15.82363 5790 ft 124 kts 114°
2026-05-08 11:47 47.13730 15.83545 5664 ft 134 kts 114°
2026-05-08 11:47 47.13328 15.84804 5548 ft 138 kts 114°
2026-05-08 11:47 47.12891 15.86082 5371 ft 143 kts 117°
2026-05-08 11:47 47.12497 15.87366 5338 ft 139 kts 110°
2026-05-08 11:48 47.12157 15.88678 5316 ft 135 kts 109°
2026-05-08 11:48 47.11844 15.90023 4982 ft 152 kts 107°
2026-05-08 11:48 47.11541 15.91359 4878 ft 128 kts 110°
2026-05-08 11:48 47.11190 15.92590 4672 ft 129 kts 113°
2026-05-08 11:49 47.10944 15.93907 4282 ft 137 kts 85°
2026-05-08 11:49 47.11288 15.95060 4284 ft 116 kts 49°
2026-05-08 11:49 47.11867 15.95778 4259 ft 108 kts 30°
2026-05-08 11:49 47.12536 15.96372 4089 ft 117 kts 30°
2026-05-08 11:50 47.13230 15.96999 4029 ft 118 kts 31°
2026-05-08 11:50 47.13922 15.97635 3980 ft 117 kts 30°
2026-05-08 11:50 47.14625 15.98257 3934 ft 115 kts 28°
2026-05-08 11:50 47.15280 15.98825 4031 ft 105 kts 30°
2026-05-08 11:51 47.15903 15.99379 3999 ft 109 kts 29°
2026-05-08 11:51 47.16562 15.99937 3977 ft 109 kts 27°
2026-05-08 11:51 47.17236 16.00452 4020 ft 107 kts 25°
2026-05-08 11:51 47.17901 16.00831 4138 ft 102 kts 11°
2026-05-08 11:52 47.18587 16.01139 4140 ft 109 kts 15°
2026-05-08 11:52 47.19378 16.01175 4089 ft 115 kts 356°
2026-05-08 11:52 47.20188 16.01139 4073 ft 118 kts 359°
2026-05-08 11:52 47.21022 16.01143 4024 ft 122 kts
2026-05-08 11:53 47.21863 16.01346 3996 ft 123 kts 14°
2026-05-08 11:53 47.22638 16.01720 4121 ft 113 kts 20°
2026-05-08 11:53 47.23382 16.02181 4123 ft 115 kts 23°
2026-05-08 11:53 47.24100 16.02735 4060 ft 122 kts 28°
2026-05-08 11:54 47.24829 16.03401 4046 ft 122 kts 32°
2026-05-08 11:54 47.25515 16.04088 4090 ft 118 kts 33°
2026-05-08 11:54 47.26195 16.04783 4063 ft 120 kts 33°
2026-05-08 11:54 47.26899 16.05472 4039 ft 121 kts 31°
2026-05-08 11:55 47.27614 16.06105 4051 ft 119 kts 27°
2026-05-08 11:55 47.28340 16.06685 4025 ft 119 kts 25°
2026-05-08 11:55 47.29094 16.07167 3981 ft 120 kts 20°
2026-05-08 11:55 47.29872 16.07608 3965 ft 119 kts 19°
2026-05-08 11:56 47.30652 16.08000 3945 ft 119 kts 16°
2026-05-08 11:56 47.31458 16.08346 3913 ft 121 kts 16°
2026-05-08 11:56 47.32237 16.08710 3909 ft 117 kts 17°
2026-05-08 11:56 47.33026 16.09055 3884 ft 118 kts 13°
2026-05-08 11:57 47.33833 16.09290 3870 ft 119 kts
2026-05-08 11:57 47.34657 16.09428 3868 ft 119 kts
2026-05-08 11:57 47.35477 16.09527 3891 ft 118 kts
2026-05-08 11:57 47.36285 16.09556 3898 ft 118 kts 359°
2026-05-08 11:58 47.37108 16.09556 3903 ft 118 kts
2026-05-08 11:58 47.37925 16.09637 3900 ft 118 kts
2026-05-08 11:58 47.38749 16.09668 3893 ft 118 kts 359°
2026-05-08 11:59 47.40393 16.09740 3904 ft 118 kts
2026-05-08 11:59 47.41211 16.09799 3911 ft 118 kts
2026-05-08 11:59 47.42026 16.09912 3958 ft 114 kts
2026-05-08 11:59 47.42781 16.10020 4036 ft 109 kts
2026-05-08 12:00 47.43492 16.10156 4199 ft 98 kts
2026-05-08 12:00 47.44158 16.10301 4297 ft 97 kts
2026-05-08 12:00 47.44828 16.10440 4384 ft 97 kts 11°
2026-05-08 12:00 47.45464 16.10722 4496 ft 94 kts 14°
2026-05-08 12:01 47.46093 16.10974 4585 ft 94 kts 10°
2026-05-08 12:01 47.46743 16.11131 4652 ft 95 kts
2026-05-08 12:01 47.47393 16.11099 4721 ft 95 kts 344°
2026-05-08 12:01 47.48020 16.10678 4736 ft 100 kts 338°
2026-05-08 12:02 47.48691 16.10513 4861 ft 95 kts 353°
2026-05-08 12:02 47.49327 16.10434 4991 ft 91 kts 352°
2026-05-08 12:02 47.49957 16.10348 5087 ft 90 kts 352°
2026-05-08 12:02 47.50580 16.10293 5177 ft 90 kts 355°
2026-05-08 12:03 47.51213 16.10241 5251 ft 92 kts 353°
2026-05-08 12:03 47.51846 16.10153 5346 ft 91 kts 352°
2026-05-08 12:03 47.52487 16.10157 5406 ft 94 kts 356°
2026-05-08 12:03 47.53121 16.09968 5492 ft 91 kts 343°
2026-05-08 12:04 47.53707 16.09767 5678 ft 86 kts 345°
2026-05-08 12:04 47.54279 16.09585 5862 ft 83 kts 345°
2026-05-08 12:04 47.54836 16.09416 6031 ft 81 kts 345°
2026-05-08 12:04 47.55384 16.09254 6196 ft 80 kts 345°
2026-05-08 12:05 47.55922 16.09100 6360 ft 78 kts 345°
2026-05-08 12:05 47.56448 16.08955 6527 ft 76 kts 345°
2026-05-08 12:05 47.56945 16.08778 6701 ft 70 kts 334°
2026-05-08 12:05 47.57382 16.08517 6874 ft 65 kts 334°
2026-05-08 12:06 47.57783 16.08302 7047 ft 56 kts 333°
2026-05-08 12:06 47.58176 16.08073 7095 ft 68 kts 331°
2026-05-08 12:06 47.58660 16.07790 7123 ft 83 kts 336°
2026-05-08 12:06 47.59224 16.07454 7177 ft 92 kts 333°
2026-05-08 12:07 47.59837 16.07082 7229 ft 99 kts 334°
2026-05-08 12:07 47.60493 16.06688 7277 ft 104 kts 334°
2026-05-08 12:07 47.61178 16.06281 7330 ft 108 kts 334°
2026-05-08 12:07 47.61884 16.05860 7377 ft 110 kts 334°
2026-05-08 12:08 47.62601 16.05431 7430 ft 112 kts 334°
2026-05-08 12:08 47.63324 16.05000 7482 ft 113 kts 334°
2026-05-08 12:08 47.64043 16.04571 7533 ft 113 kts 334°
2026-05-08 12:08 47.64775 16.04137 7579 ft 114 kts 334°
2026-05-08 12:09 47.65510 16.03701 7629 ft 114 kts 334°
2026-05-08 12:09 47.66246 16.03266 7678 ft 114 kts 334°
2026-05-08 12:09 47.66983 16.02832 7729 ft 114 kts 334°
2026-05-08 12:09 47.67720 16.02399 7779 ft 114 kts 334°
2026-05-08 12:10 47.68457 16.01969 7829 ft 114 kts 334°
2026-05-08 12:10 47.69192 16.01541 7878 ft 114 kts 334°
2026-05-08 12:10 47.69929 16.01114 7928 ft 113 kts 334°
2026-05-08 12:10 47.70654 16.00695 7977 ft 113 kts 334°
2026-05-08 12:11 47.71389 16.00272 8027 ft 113 kts 334°
2026-05-08 12:11 47.72123 15.99851 8075 ft 113 kts 334°
2026-05-08 12:11 47.72837 15.99376 8124 ft 112 kts 328°
2026-05-08 12:11 47.73531 15.98859 8173 ft 112 kts 329°
2026-05-08 12:12 47.74230 15.98349 8222 ft 112 kts 329°
2026-05-08 12:12 47.74926 15.97842 8272 ft 111 kts 329°
2026-05-08 12:12 47.75621 15.97338 8323 ft 111 kts 329°
2026-05-08 12:12 47.76316 15.96835 8371 ft 111 kts 329°
2026-05-08 12:13 47.77010 15.96335 8420 ft 111 kts 329°
2026-05-08 12:13 47.77695 15.95843 8469 ft 111 kts 329°
2026-05-08 12:13 47.78370 15.95315 8520 ft 109 kts 323°
2026-05-08 12:13 47.78951 15.94588 8593 ft 103 kts 306°
2026-05-08 12:14 47.79165 15.93684 8778 ft 91 kts 270°
2026-05-08 12:14 47.78908 15.92787 8832 ft 97 kts 239°
2026-05-08 12:14 47.78514 15.92003 8980 ft 92 kts 238°
2026-05-08 12:14 47.78122 15.91235 9016 ft 98 kts 239°
2026-05-08 12:15 47.77692 15.90395 9028 ft 103 kts 237°
2026-05-08 12:15 47.77227 15.89633 9190 ft 95 kts 232°
2026-05-08 12:15 47.76840 15.88880 9264 ft 94 kts 248°
2026-05-08 12:15 47.76602 15.87943 9282 ft 98 kts 259°
2026-05-08 12:16 47.76569 15.86944 9364 ft 95 kts 273°
2026-05-08 12:16 47.76607 15.85996 9504 ft 89 kts 275°
2026-05-08 12:16 47.76710 15.85084 9560 ft 92 kts 285°
2026-05-08 12:16 47.76947 15.84173 9598 ft 96 kts 295°
2026-05-08 12:17 47.77365 15.83397 9665 ft 98 kts 314°
2026-05-08 12:17 47.77951 15.82866 9733 ft 102 kts 335°
2026-05-08 12:17 47.78654 15.82591 9715 ft 110 kts 339°
2026-05-08 12:17 47.79442 15.82408 9679 ft 117 kts 352°
2026-05-08 12:18 47.80264 15.82391 9630 ft 120 kts 352°
2026-05-08 12:18 47.81106 15.82385 9597 ft 121 kts 354°
2026-05-08 12:18 47.81977 15.82333 9420 ft 130 kts 349°
2026-05-08 12:18 47.82924 15.82124 9048 ft 142 kts 344°
2026-05-08 12:19 47.83884 15.81720 8805 ft 142 kts 341°
2026-05-08 12:19 47.84762 15.81162 8646 ft 134 kts 314°
2026-05-08 12:19 47.85113 15.79957 8464 ft 132 kts 277°
2026-05-08 12:19 47.85265 15.78586 8174 ft 137 kts 283°
2026-05-08 12:20 47.85641 15.77212 7691 ft 146 kts 299°
2026-05-08 12:20 47.86221 15.76019 7295 ft 144 kts 311°
2026-05-08 12:20 47.87038 15.74991 6460 ft 165 kts 325°
2026-05-08 12:20 47.88042 15.74289 6150 ft 153 kts 347°
2026-05-08 12:21 47.89039 15.74288 6094 ft 137 kts
2026-05-08 12:21 47.90012 15.74488 5740 ft 143 kts
2026-05-08 12:21 47.91030 15.74641 5345 ft 146 kts 358°
2026-05-08 12:21 47.91962 15.74480 5382 ft 124 kts 350°
2026-05-08 12:22 47.92815 15.74308 5219 ft 127 kts 352°
2026-05-08 12:22 47.93709 15.74199 5055 ft 128 kts 355°
2026-05-08 12:22 47.94583 15.74157 4966 ft 124 kts 357°
2026-05-08 12:22 47.95451 15.74130 4817 ft 126 kts 357°
2026-05-08 12:23 47.96321 15.74134 4734 ft 122 kts 359°
2026-05-08 12:23 47.97165 15.74127 4640 ft 122 kts 356°
2026-05-08 12:23 47.98114 15.74043 4011 ft 148 kts 354°
2026-05-08 12:23 47.99069 15.73873 4007 ft 130 kts 352°
2026-05-08 12:24 47.99931 15.73590 3932 ft 124 kts 344°
2026-05-08 12:24 48.00730 15.73252 3884 ft 120 kts 344°
2026-05-08 12:24 48.01547 15.72908 3733 ft 124 kts 344°
2026-05-08 12:24 48.02374 15.72536 3666 ft 120 kts 343°
2026-05-08 12:25 48.03141 15.72171 3736 ft 114 kts 341°
2026-05-08 12:25 48.03847 15.71793 3962 ft 99 kts 338°
2026-05-08 12:25 48.04462 15.71397 4071 ft 101 kts 336°
2026-05-08 12:25 48.05123 15.70927 4104 ft 107 kts 333°
2026-05-08 12:26 48.05781 15.70422 4205 ft 105 kts 330°
2026-05-08 12:26 48.06438 15.69977 4272 ft 107 kts 348°
2026-05-08 12:26 48.07206 15.69953 4264 ft 114 kts
2026-05-08 12:26 48.08015 15.70026 4159 ft 125 kts
2026-05-08 12:27 48.08970 15.70106 3594 ft 138 kts
2026-05-08 12:27 48.09946 15.70138 3317 ft 138 kts 360°
2026-05-08 12:27 48.10863 15.70111 3291 ft 127 kts 358°
2026-05-08 12:27 48.11733 15.70082 3203 ft 125 kts 359°
2026-05-08 12:28 48.12598 15.70044 3105 ft 124 kts 358°
2026-05-08 12:28 48.13459 15.70018 2999 ft 124 kts
2026-05-08 12:28 48.14313 15.70028 2879 ft 118 kts
2026-05-08 12:28 48.15171 15.70086 2613 ft 129 kts
2026-05-08 12:29 48.16011 15.70434 2531 ft 124 kts 27°
2026-05-08 12:29 48.16689 15.71225 2401 ft 125 kts 45°
2026-05-08 12:29 48.17218 15.72263 2296 ft 124 kts 57°
2026-05-08 12:29 48.17612 15.73392 2245 ft 120 kts 64°
2026-05-08 12:30 48.17928 15.74573 2079 ft 126 kts 68°
2026-05-08 12:30 48.18227 15.75846 1918 ft 126 kts 71°
2026-05-08 12:30 48.18432 15.77093 1851 ft 124 kts 78°
2026-05-08 12:30 48.18538 15.78370 1825 ft 121 kts 85°
2026-05-08 12:31 48.18557 15.79618 1795 ft 121 kts 88°
2026-05-08 12:31 48.18561 15.80844 1818 ft 115 kts 89°
2026-05-08 12:31 48.18546 15.82030 1932 ft 112 kts 89°
2026-05-08 12:31 48.18540 15.83192 2003 ft 112 kts 87°
2026-05-08 12:32 48.18589 15.84376 2019 ft 116 kts 82°
2026-05-08 12:32 48.18692 15.85583 2055 ft 116 kts 80°
2026-05-08 12:32 48.18825 15.86763 2129 ft 114 kts 77°
2026-05-08 12:32 48.19001 15.87944 2112 ft 119 kts 75°
2026-05-08 12:33 48.19146 15.89190 2090 ft 123 kts 84°
2026-05-08 12:33 48.19116 15.90459 2129 ft 121 kts 95°
2026-05-08 12:33 48.18954 15.91678 2167 ft 121 kts 102°
2026-05-08 12:33 48.18717 15.92896 2181 ft 122 kts 105°
2026-05-08 12:34 48.18479 15.94116 2203 ft 122 kts 102°
2026-05-08 12:34 48.18277 15.95349 2229 ft 122 kts 101°
2026-05-08 12:34 48.18082 15.96581 2249 ft 122 kts 100°
2026-05-08 12:34 48.17913 15.97825 2268 ft 122 kts 97°
2026-05-08 12:35 48.17799 15.99078 2290 ft 121 kts 93°
2026-05-08 12:35 48.17749 16.00338 2310 ft 121 kts 89°
2026-05-08 12:35 48.17767 16.01583 2340 ft 122 kts 83°
2026-05-08 12:35 48.17830 16.02826 2428 ft 118 kts 84°
2026-05-08 12:36 48.17896 16.04049 2475 ft 119 kts 83°
2026-05-08 12:36 48.18016 16.05282 2487 ft 121 kts 75°
2026-05-08 12:36 48.18206 16.06502 2531 ft 120 kts 75°
2026-05-08 12:36 48.18393 16.07768 2430 ft 129 kts 75°
2026-05-08 12:37 48.18576 16.09088 2399 ft 130 kts 77°
2026-05-08 12:37 48.18728 16.10432 2357 ft 130 kts 79°
2026-05-08 12:37 48.18902 16.11789 2235 ft 135 kts 74°
2026-05-08 12:37 48.19190 16.13105 2142 ft 132 kts 66°
2026-05-08 12:38 48.19554 16.14333 2109 ft 128 kts 63°
2026-05-08 12:38 48.19987 16.15487 2047 ft 127 kts 57°
2026-05-08 12:38 48.20440 16.16630 1971 ft 128 kts 64°
2026-05-08 12:38 48.20761 16.17874 1901 ft 128 kts 74°
2026-05-08 12:39 48.20838 16.19205 1879 ft 125 kts 87°
2026-05-08 12:39 48.20863 16.20480 1882 ft 125 kts 87°
2026-05-08 12:39 48.20836 16.21768 1981 ft 119 kts 88°
2026-05-08 12:39 48.20897 16.22952 2114 ft 113 kts 76°
2026-05-08 12:40 48.21222 16.24062 2050 ft 123 kts 60°
2026-05-08 12:40 48.21613 16.25137 2208 ft 113 kts 61°
2026-05-08 12:40 48.21960 16.26174 2328 ft 110 kts 62°
2026-05-08 12:40 48.22286 16.27152 2485 ft 106 kts 63°
2026-05-08 12:41 48.22597 16.28185 2556 ft 109 kts 67°
2026-05-08 12:41 48.22830 16.29241 2714 ft 104 kts 71°
2026-05-08 12:41 48.23055 16.30270 2832 ft 105 kts 66°
2026-05-08 12:41 48.23438 16.31194 2865 ft 110 kts 41°
2026-05-08 12:42 48.24197 16.31559 2715 ft 126 kts 359°
2026-05-08 12:42 48.24215 16.31558 2713 ft 126 kts 359°
2026-05-08 12:42 48.24968 16.31341 2586 ft 135 kts 333°
2026-05-08 12:42 48.25545 16.30224 2576 ft 131 kts 300°
2026-05-08 12:43 48.26000 16.28991 2457 ft 136 kts 300°
2026-05-08 12:43 48.26412 16.27774 2612 ft 122 kts 298°
2026-05-08 12:43 48.26805 16.26564 2530 ft 128 kts 298°
2026-05-08 12:43 48.27284 16.25474 2553 ft 125 kts 321°
2026-05-08 12:44 48.28010 16.24774 2570 ft 124 kts 336°
2026-05-08 12:44 48.28839 16.24618 2562 ft 124 kts 13°
2026-05-08 12:44 48.29533 16.25340 2571 ft 124 kts 51°
2026-05-08 12:44 48.30026 16.26391 2580 ft 124 kts 53°
2026-05-08 12:45 48.30403 16.27568 2565 ft 127 kts 79°
2026-05-08 12:45 48.30318 16.28892 2567 ft 129 kts 99°
2026-05-08 12:45 48.30141 16.30227 2429 ft 127 kts 100°
2026-05-08 12:45 48.29966 16.31546 2196 ft 130 kts 98°
2026-05-08 12:46 48.29772 16.32816 2134 ft 121 kts 106°
2026-05-08 12:46 48.29360 16.33976 1881 ft 129 kts 124°
2026-05-08 12:46 48.28762 16.34933 1752 ft 128 kts 137°
2026-05-08 12:46 48.28032 16.35725 1564 ft 130 kts 146°
2026-05-08 12:47 48.27252 16.36390 1444 ft 128 kts 150°
2026-05-08 12:47 48.26467 16.37003 1319 ft 126 kts 151°
2026-05-08 12:47 48.25693 16.37622 1222 ft 126 kts 151°
2026-05-08 12:47 48.24929 16.38258 1152 ft 125 kts 148°
2026-05-08 12:48 48.24207 16.38972 1069 ft 124 kts 143°
2026-05-08 12:48 48.23533 16.39747 1047 ft 120 kts 141°
2026-05-08 12:48 48.22909 16.40529 996 ft 120 kts 139°
2026-05-08 12:48 48.22291 16.41345 985 ft 116 kts 138°
2026-05-08 12:49 48.21705 16.42168 958 ft 116 kts 135°
2026-05-08 12:49 48.21130 16.43008 938 ft 114 kts 135°
2026-05-08 12:49 48.20541 16.43797 967 ft 113 kts 139°
2026-05-08 12:49 48.19961 16.44590 998 ft 113 kts 136°
2026-05-08 12:50 48.19404 16.45422 1019 ft 113 kts 134°
2026-05-08 12:50 48.18873 16.46290 1043 ft 113 kts 130°
2026-05-08 12:50 48.18303 16.47083 1038 ft 116 kts 142°
2026-05-08 12:50 48.17685 16.47869 1050 ft 115 kts 135°
2026-05-08 12:51 48.17142 16.48717 1114 ft 111 kts 130°
2026-05-08 12:51 48.16144 16.50535 1161 ft 115 kts 132°
2026-05-08 12:51 48.15597 16.51384 1266 ft 111 kts 135°
2026-05-08 12:52 48.14864 16.51804 1314 ft 114 kts 174°
2026-05-08 12:52 48.13352 16.52646 1218 ft 129 kts 153°
2026-05-08 12:52 48.13284 16.52696 1197 ft 131 kts 153°
2026-05-08 12:56 48.12764 16.53073 1120 ft 134 kts 155°
2026-05-08 12:57 48.11930 16.53640 1033 ft 124 kts 148°
2026-05-08 12:57 48.11409 16.54498 1048 ft 101 kts 122°
2026-05-08 12:57 48.11050 16.55339 1027 ft 93 kts 121°
2026-05-08 12:57 48.10754 16.56100 1018 ft 71 kts 118°
2026-05-08 12:58 48.10568 16.56695 1015 ft 59 kts 112°
2026-05-08 12:58 48.10424 16.57247 996 ft 56 kts 110°
2026-05-08 12:58 48.10323 16.57815 938 ft 62 kts 83°
2026-05-08 12:58 48.10652 16.58130 864 ft 63 kts 346°
2026-05-08 12:59 48.10902 16.57576 713 ft 68 kts 294°
2026-05-08 12:59 48.11089 16.56990 647 ft 54 kts 298°
2026-05-08 12:59 48.11216 16.56546 604 ft 38 kts 291°
2026-05-08 12:59 48.11340 16.56372 604 ft 18 kts 358°
2026-05-08 13:00 48.11422 16.56343 604 ft 7 kts 331°
2026-05-08 13:00 48.11469 16.56300 604 ft 12 kts 328°
2026-05-08 13:00 48.11555 16.56199 604 ft 15 kts 313°
2026-05-08 13:00 48.11618 16.56172 604 ft 5 kts 359°
2026-05-08 13:01 48.11661 16.56148 604 ft 15 kts 313°
2026-05-08 13:01 48.11712 16.56011 604 ft 18 kts 298°
2026-05-08 13:01 48.11749 16.55818 604 ft 19 kts 229°
2026-05-08 13:01 48.11709 16.55720 604 ft 7 kts 295°
2026-05-08 13:02 48.11750 16.55599 604 ft 21 kts 296°
2026-05-08 13:02 48.11831 16.55360 604 ft 26 kts 296°
2026-05-08 13:02 48.11920 16.55086 604 ft 33 kts 296°
2026-05-08 13:02 48.12031 16.54746 604 ft 38 kts 296°
2026-05-08 13:03 48.12158 16.54356 604 ft 44 kts 295°
2026-05-08 13:03 48.12247 16.54094 604 ft 16 kts 305°
2026-05-08 13:03 48.12278 16.53986 604 ft 7 kts 296°
2026-05-08 13:03 48.12286 16.53962 604 ft 0 kts 295°
2026-05-08 13:04 48.12296 16.53930 604 ft 12 kts 294°
2026-05-08 13:05 48.12347 16.53773 604 ft 18 kts 296°
2026-05-08 13:05 48.12399 16.53647 604 ft 15 kts 343°
2026-05-08 13:05 48.12527 16.53666 604 ft 22 kts 28°
2026-05-08 13:05 48.12622 16.53687 604 ft 9 kts 283°
2026-05-08 13:06 48.12631 16.53650 604 ft 0 kts 296°